[[{"header":{"parameterUnit":"m.s-1","parameterCategory":2,"la1":30.2992,"la2":30.254,"lo1":-89.0895,"lo2":-89.0443,"dy":0.0025,"dx":0.0025,"nx":19,"ny":19,"refTime":"2026-05-09T21:00:00:Z","depth":"0","parameterNumber":2,"parameterNumberName":"U-component_of_CURRENTS"},"data":[0,0,0,-0.066,-0.066,-0.0638,-0.0638,-0.0601,-0.0601,0,0,0,0,0,0,0,0,0,0,0,-0.0667,-0.0667,-0.066,-0.066,-0.0638,-0.0638,-0.0601,-0.0601,0,0,0,0,0,0,0,0,0,0,0,-0.0667,-0.0667,-0.0667,-0.066,-0.0638,-0.0638,-0.0601,-0.0618,0,0,0,0,0,0,0,0,0,0,-0.0639,-0.0653,-0.0667,-0.0667,-0.066,-0.0638,-0.0638,-0.0618,-0.0617,-0.0611,0,-0.0614,0,-0.0611,-0.0599,-0.0599,0,0,0,-0.0651,-0.0655,-0.0647,-0.0667,-0.066,-0.0638,-0.0645,-0.0617,-0.0615,-0.0609,-0.0613,-0.0612,-0.061,-0.0599,-0.0599,-0.0628,-0.0629,0,0,-0.0652,-0.0662,-0.0649,-0.0646,-0.0662,-0.0646,-0.0645,-0.0616,-0.0618,-0.0613,-0.0611,-0.061,-0.0599,-0.0598,-0.0628,-0.0629,0,0,0,-0.0661,-0.0663,-0.0656,-0.0648,-0.0647,-0.0646,-0.0644,-0.0619,-0.0617,-0.0611,-0.0609,-0.0598,-0.0598,-0.0627,-0.0628,-0.063,0,0,0,-0.0662,-0.0669,-0.0657,-0.0662,-0.0648,-0.0635,-0.0648,-0.0619,-0.0615,-0.0609,-0.0598,-0.0598,-0.0627,-0.0628,-0.0629,-0.0609,0,0,0,-0.0666,-0.0669,-0.0669,-0.0663,-0.0658,-0.0636,-0.0631,-0.0618,-0.0615,-0.0599,-0.0598,-0.0626,-0.0628,-0.0628,-0.0608,-0.0598,0,0,0,-0.0674,-0.0681,-0.0669,-0.0673,-0.0658,-0.0661,-0.0631,-0.0632,-0.0623,-0.0598,-0.0627,-0.0628,-0.0627,-0.0608,-0.0597,-0.0533,-0.053,0,0,-0.0686,-0.0682,-0.0683,-0.0672,-0.0675,-0.0662,-0.0671,-0.0647,-0.0641,-0.0632,-0.0633,-0.0629,-0.0608,-0.0598,-0.0607,-0.06,0,0,0,-0.0689,-0.0686,-0.0688,-0.0682,-0.0684,-0.0679,-0.067,-0.067,-0.0665,-0.0643,-0.0655,-0.0641,-0.0634,-0.0596,-0.0592,-0.0547,-0.0634,-0.0634,-0.0634,-0.0721,-0.0703,-0.0698,-0.0683,-0.0692,-0.0694,-0.0692,-0.0691,-0.0689,-0.07,-0.0663,-0.0681,-0.0643,-0.0639,-0.0595,-0.0697,-0.0697,-0.0697,-0.0697,-0.0723,-0.0704,-0.0692,-0.0677,-0.0677,-0.0686,-0.0696,-0.0697,-0.0694,-0.0697,-0.0691,-0.0625,-0.0634,-0.0589,-0.0697,-0.0697,-0.0697,-0.0697,-0.0697,-0.073,-0.0711,-0.0694,-0.0666,-0.0659,-0.0667,-0.0649,-0.0661,-0.068,-0.0676,-0.0625,-0.0624,-0.0564,-0.0672,-0.0671,-0.0671,-0.0671,-0.0671,-0.0671,-0.0731,-0.0709,-0.0678,-0.0653,-0.0636,-0.0622,-0.0611,-0.0604,-0.0599,-0.0611,-0.061,-0.0567,-0.0672,-0.065,-0.0669,-0.067,-0.067,-0.067,-0.067,-0.0699,-0.0694,-0.0653,-0.0626,-0.0582,-0.0545,-0.0542,-0.0506,-0.051,-0.0505,-0.0481,-0.0578,-0.0562,-0.0565,-0.054,-0.053,-0.053,-0.053,-0.053,-0.0675,-0.0671,-0.0609,-0.0568,-0.0531,-0.0502,-0.0431,-0.0422,-0.0411,-0.0389,-0.0401,-0.0395,-0.0402,-0.0378,-0.0385,-0.0358,-0.0302,-0.0301,-0.0301,-0.0632,-0.0624,-0.0575,-0.0543,-0.0498,-0.0447,-0.0371,-0.034,-0.031,-0.029,-0.0352,-0.0361,-0.0355,-0.037,-0.0335,-0.0349,-0.0305,0,0]},{"header":{"parameterUnit":"m.s-1","parameterCategory":2,"la1":30.2992,"la2":30.254,"lo1":-89.0895,"lo2":-89.0443,"dy":0.0025,"dx":0.0025,"nx":19,"ny":19,"refTime":"2026-05-09T21:00:00:Z","depth":"0","parameterNumber":3,"parameterNumberName":"V-component_of_CURRENTS"},"data":[0,0,0,-0.1296,-0.1298,-0.1355,-0.1355,-0.1429,-0.143,0,0,0,0,0,0,0,0,0,0,0,-0.1272,-0.1273,-0.1296,-0.1298,-0.1355,-0.1355,-0.1429,-0.143,0,0,0,0,0,0,0,0,0,0,0,-0.1272,-0.1273,-0.1273,-0.1298,-0.1354,-0.1355,-0.1429,-0.1385,0,0,0,0,0,0,0,0,0,0,-0.133,-0.1301,-0.1272,-0.1273,-0.1298,-0.1354,-0.1355,-0.1383,-0.1388,-0.1404,0,-0.1411,0,-0.1425,-0.1435,-0.1435,0,0,0,-0.1297,-0.1297,-0.132,-0.1273,-0.1299,-0.1354,-0.1329,-0.1386,-0.1391,-0.141,-0.1412,-0.1415,-0.1426,-0.1435,-0.1436,-0.1566,-0.1566,0,0,-0.1294,-0.1277,-0.1316,-0.1323,-0.1312,-0.1327,-0.1331,-0.1389,-0.139,-0.1413,-0.1417,-0.1427,-0.1436,-0.1436,-0.1565,-0.1566,0,0,0,-0.1285,-0.1275,-0.1296,-0.132,-0.1332,-0.1329,-0.1333,-0.1387,-0.1396,-0.1418,-0.1428,-0.1436,-0.1437,-0.1564,-0.1565,-0.1613,0,0,0,-0.1283,-0.127,-0.1294,-0.1284,-0.1331,-0.1359,-0.1329,-0.1392,-0.1399,-0.1428,-0.1436,-0.1438,-0.1563,-0.1565,-0.161,-0.1608,0,0,0,-0.127,-0.1269,-0.1276,-0.1283,-0.131,-0.1358,-0.137,-0.1394,-0.1406,-0.1435,-0.1438,-0.1562,-0.1564,-0.1607,-0.1604,-0.1655,0,0,0,-0.125,-0.1264,-0.1276,-0.1311,-0.1309,-0.1387,-0.137,-0.1421,-0.145,-0.1437,-0.1563,-0.1565,-0.1606,-0.1602,-0.1652,-0.1616,-0.1626,0,0,-0.1259,-0.1265,-0.1292,-0.1305,-0.1375,-0.1379,-0.1464,-0.1485,-0.1487,-0.1541,-0.1544,-0.1611,-0.1604,-0.1654,-0.1734,-0.174,0,0,0,-0.1292,-0.1307,-0.1333,-0.1378,-0.1432,-0.1484,-0.1516,-0.154,-0.1594,-0.1514,-0.1639,-0.1633,-0.1664,-0.1637,-0.1643,-0.1541,-0.1575,-0.1574,-0.1574,-0.1258,-0.1316,-0.1369,-0.1442,-0.1492,-0.1567,-0.1616,-0.1658,-0.1654,-0.1692,-0.1695,-0.1792,-0.1766,-0.177,-0.1666,-0.1732,-0.1732,-0.1733,-0.1733,-0.1286,-0.1322,-0.1397,-0.1469,-0.154,-0.1614,-0.1709,-0.1728,-0.1809,-0.1777,-0.1805,-0.1716,-0.1779,-0.1666,-0.1736,-0.1736,-0.1735,-0.1735,-0.1735,-0.1272,-0.1293,-0.1355,-0.1456,-0.1543,-0.163,-0.1711,-0.1778,-0.1837,-0.1875,-0.1848,-0.1846,-0.1726,-0.1894,-0.1894,-0.1894,-0.1894,-0.1895,-0.1895,-0.1216,-0.128,-0.1335,-0.1439,-0.15,-0.1591,-0.171,-0.1776,-0.1859,-0.189,-0.189,-0.1751,-0.1841,-0.1811,-0.1899,-0.1898,-0.1897,-0.1897,-0.1897,-0.1183,-0.1209,-0.1291,-0.1354,-0.1495,-0.1568,-0.1672,-0.1799,-0.1878,-0.1927,-0.1791,-0.191,-0.1887,-0.1881,-0.1853,-0.1946,-0.1946,-0.1946,-0.1946,-0.1131,-0.1159,-0.1252,-0.1344,-0.1453,-0.1558,-0.1647,-0.177,-0.182,-0.1781,-0.1755,-0.1694,-0.1696,-0.1658,-0.1658,-0.1623,-0.1656,-0.1656,-0.1655,-0.1093,-0.1139,-0.1186,-0.1306,-0.1438,-0.1542,-0.16,-0.1688,-0.1698,-0.1634,-0.1624,-0.1636,-0.1535,-0.1547,-0.1477,-0.1484,-0.1423,0,0]}],[{"header":{"parameterUnit":"m.s-1","parameterCategory":2,"la1":30.2992,"la2":30.254,"lo1":-89.0895,"lo2":-89.0443,"dy":0.0025,"dx":0.0025,"nx":19,"ny":19,"refTime":"2026-05-09T21:00:00:Z","depth":"2","parameterNumber":2,"parameterNumberName":"U-component_of_CURRENTS"},"data":[0,0,0,-0.2058,-0.2058,-0.2084,-0.2084,-0.2006,-0.2005,0,0,0,0,0,0,0,0,0,0,0,-0.2037,-0.2037,-0.2058,-0.2059,-0.2084,-0.2084,-0.2007,-0.2005,0,0,0,0,0,0,0,0,0,0,0,-0.2037,-0.2037,-0.2037,-0.2059,-0.2084,-0.2084,-0.2007,-0.2015,0,0,0,0,0,0,0,0,0,0,-0.2004,-0.2001,-0.2037,-0.2037,-0.2059,-0.2084,-0.2084,-0.2016,-0.2014,-0.1963,0,-0.1961,0,-0.1984,-0.1998,-0.1997,0,0,0,-0.2058,-0.2003,-0.2011,-0.2037,-0.2059,-0.2084,-0.2072,-0.2016,-0.2013,-0.196,-0.1961,-0.1959,-0.1982,-0.1997,-0.1997,-0.1832,-0.1831,0,0,-0.2056,-0.204,-0.2013,-0.2009,-0.2055,-0.2072,-0.2073,-0.2016,-0.2005,-0.1961,-0.1958,-0.1981,-0.1996,-0.1995,-0.1832,-0.1831,0,0,0,-0.2053,-0.2038,-0.205,-0.2011,-0.2026,-0.2072,-0.2074,-0.2008,-0.2011,-0.1958,-0.198,-0.1996,-0.1994,-0.1834,-0.1832,-0.1816,0,0,0,-0.2052,-0.2037,-0.2049,-0.2039,-0.2027,-0.2033,-0.2067,-0.2015,-0.201,-0.1981,-0.1996,-0.1993,-0.1835,-0.1833,-0.1819,-0.1807,0,0,0,-0.2038,-0.2036,-0.2036,-0.2038,-0.2052,-0.2035,-0.2036,-0.2015,-0.2023,-0.1997,-0.1993,-0.1835,-0.1833,-0.1821,-0.181,-0.1736,0,0,0,-0.2024,-0.2014,-0.2035,-0.202,-0.2052,-0.2011,-0.2037,-0.2023,-0.2001,-0.1995,-0.1834,-0.1832,-0.1822,-0.1813,-0.1739,-0.1537,-0.1507,0,0,-0.2006,-0.2012,-0.2002,-0.2022,-0.1987,-0.2008,-0.1938,-0.1943,-0.1943,-0.1848,-0.1845,-0.1818,-0.1811,-0.1737,-0.1407,-0.138,0,0,0,-0.1992,-0.1989,-0.1977,-0.1966,-0.1941,-0.1898,-0.19,-0.1875,-0.1835,-0.192,-0.1776,-0.1771,-0.1725,-0.1609,-0.1587,-0.1821,-0.1822,-0.1822,-0.1822,-0.1951,-0.1951,-0.1915,-0.1901,-0.1862,-0.1819,-0.1776,-0.1735,-0.1755,-0.1732,-0.1727,-0.1618,-0.1492,-0.1473,-0.1694,-0.1694,-0.1694,-0.1694,-0.1694,-0.192,-0.1882,-0.1872,-0.1846,-0.1785,-0.173,-0.1645,-0.166,-0.1584,-0.1636,-0.1593,-0.1559,-0.1448,-0.1692,-0.1692,-0.1692,-0.1693,-0.1693,-0.1693,-0.1879,-0.185,-0.1859,-0.1803,-0.1737,-0.1684,-0.1566,-0.1568,-0.1561,-0.1535,-0.1391,-0.1389,-0.1613,-0.1522,-0.1522,-0.1521,-0.1521,-0.1521,-0.152,-0.1808,-0.1808,-0.1775,-0.1744,-0.1694,-0.1614,-0.1528,-0.1441,-0.1342,-0.1332,-0.1329,-0.1559,-0.1565,-0.16,-0.1514,-0.1515,-0.1516,-0.1517,-0.1517,-0.1707,-0.1726,-0.1676,-0.1636,-0.1522,-0.1355,-0.1318,-0.1089,-0.1043,-0.0943,-0.1181,-0.1192,-0.1168,-0.1183,-0.1207,-0.1024,-0.1024,-0.1024,-0.1024,-0.1616,-0.1633,-0.1541,-0.1461,-0.1319,-0.1212,-0.0889,-0.0763,-0.0772,-0.0798,-0.0809,-0.0818,-0.084,-0.0802,-0.0826,-0.0845,-0.0569,-0.0568,-0.0568,-0.1519,-0.1521,-0.1422,-0.1382,-0.122,-0.1005,-0.0672,-0.0496,-0.0477,-0.0561,-0.0844,-0.0972,-0.1013,-0.1038,-0.1008,-0.1035,-0.1077,0,0]},{"header":{"parameterUnit":"m.s-1","parameterCategory":2,"la1":30.2992,"la2":30.254,"lo1":-89.0895,"lo2":-89.0443,"dy":0.0025,"dx":0.0025,"nx":19,"ny":19,"refTime":"2026-05-09T21:00:00:Z","depth":"2","parameterNumber":3,"parameterNumberName":"V-component_of_CURRENTS"},"data":[0,0,0,0.0235,0.0238,0.0417,0.0418,0.0692,0.0694,0,0,0,0,0,0,0,0,0,0,0,0.0164,0.0164,0.0235,0.0238,0.0417,0.0418,0.0691,0.0694,0,0,0,0,0,0,0,0,0,0,0,0.0164,0.0164,0.0164,0.0239,0.0416,0.0418,0.0691,0.0554,0,0,0,0,0,0,0,0,0,0,0.0378,0.0281,0.0164,0.0164,0.0239,0.0416,0.0418,0.0547,0.0562,0.0612,0,0.0607,0,0.0646,0.071,0.0711,0,0,0,0.0276,0.0267,0.0322,0.0164,0.024,0.0416,0.0347,0.0556,0.0573,0.0632,0.0611,0.0621,0.065,0.0711,0.0712,0.0823,0.0823,0,0,0.0266,0.0204,0.0309,0.0331,0.0246,0.0341,0.0352,0.0566,0.0563,0.0612,0.0628,0.0655,0.0713,0.0715,0.0824,0.0823,0,0,0,0.0212,0.0197,0.0246,0.0319,0.0342,0.0345,0.0358,0.0555,0.0571,0.0631,0.0658,0.0714,0.0717,0.0824,0.0824,0.0699,0,0,0,0.0208,0.0164,0.024,0.0208,0.0337,0.0441,0.0341,0.0556,0.0582,0.0657,0.0714,0.0719,0.0825,0.0824,0.0704,0.0656,0,0,0,0.0163,0.016,0.0168,0.0203,0.0266,0.0438,0.0469,0.0563,0.0597,0.0711,0.072,0.0826,0.0824,0.0708,0.0663,0.0613,0,0,0,0.0114,0.0101,0.0166,0.0177,0.0264,0.0364,0.0469,0.057,0.0659,0.0715,0.0825,0.0824,0.0709,0.0668,0.0617,0.0589,0.0566,0,0,0.0075,0.0094,0.0109,0.0172,0.0249,0.0344,0.0404,0.0565,0.0653,0.0767,0.077,0.0702,0.0664,0.0614,0.0511,0.049,0,0,0,0.0085,0.0094,0.0129,0.019,0.0278,0.0346,0.0483,0.0519,0.0614,0.0692,0.071,0.069,0.0662,0.0655,0.0638,0.0817,0.0817,0.0818,0.0818,-0.0027,0.0055,0.0094,0.0194,0.0247,0.0359,0.0397,0.0471,0.0564,0.0561,0.0593,0.0479,0.0468,0.0456,0.0598,0.0597,0.0597,0.0596,0.0596,-0.0044,-0.0018,0.0077,0.0129,0.0199,0.0243,0.0328,0.0368,0.0392,0.0472,0.0451,0.053,0.043,0.0586,0.0588,0.0589,0.059,0.0591,0.0592,-0.0102,-0.0085,-0.0044,0.0039,0.0083,0.0166,0.0189,0.0242,0.0287,0.0271,0.0302,0.0304,0.0408,0.0268,0.0267,0.0267,0.0266,0.0266,0.0266,-0.02,-0.0144,-0.0131,-0.0048,-0.0015,0.0032,0.0099,0.0111,0.0132,0.017,0.0171,0.0369,0.038,0.039,0.0259,0.026,0.0261,0.0261,0.0262,-0.0273,-0.0261,-0.0223,-0.0197,-0.0088,-0.0032,0.0009,0.0006,-0.0004,-0.0013,0.012,0.0126,0.017,0.0185,0.0192,0.0017,0.0017,0.0017,0.0017,-0.0351,-0.0329,-0.0285,-0.0221,-0.0137,-0.0052,-0.0044,-0.0004,0.0008,0.0038,0.0037,0.0105,0.0113,0.0161,0.0176,0.0187,0.001,0.001,0.0011,-0.0392,-0.0369,-0.0348,-0.0254,-0.0137,-0.0063,-0.0034,0.01,0.015,0.0016,0.0098,0.0005,0.0106,0.0118,0.02,0.0221,0.0242,0,0]}],[{"header":{"parameterUnit":"m.s-1","parameterCategory":2,"la1":30.2992,"la2":30.254,"lo1":-89.0895,"lo2":-89.0443,"dy":0.0025,"dx":0.0025,"nx":19,"ny":19,"refTime":"2026-05-09T21:00:00:Z","depth":"4","parameterNumber":2,"parameterNumberName":"U-component_of_CURRENTS"},"data":[0,0,0,-0.0657,-0.066,-0.0761,-0.0761,-0.0843,-0.0844,0,0,0,0,0,0,0,0,0,0,0,-0.0613,-0.0613,-0.0657,-0.066,-0.0761,-0.0761,-0.0843,-0.0844,0,0,0,0,0,0,0,0,0,0,0,-0.0612,-0.0613,-0.0614,-0.066,-0.0761,-0.0761,-0.0843,-0.0779,0,0,0,0,0,0,0,0,0,0,-0.0686,-0.0653,-0.0613,-0.0614,-0.0661,-0.0761,-0.0761,-0.0776,-0.0783,-0.0784,0,-0.0795,0,-0.0825,-0.0848,-0.0848,0,0,0,-0.066,-0.0648,-0.0675,-0.0614,-0.0662,-0.076,-0.0715,-0.078,-0.0787,-0.0792,-0.0797,-0.0801,-0.0826,-0.0849,-0.0849,-0.0898,-0.0898,0,0,-0.0655,-0.0633,-0.067,-0.068,-0.0682,-0.0712,-0.0718,-0.0785,-0.0789,-0.0797,-0.0803,-0.0828,-0.0849,-0.085,-0.0898,-0.0898,0,0,0,-0.0638,-0.0628,-0.0655,-0.0675,-0.07,-0.0715,-0.0722,-0.0786,-0.0795,-0.0804,-0.0829,-0.0849,-0.085,-0.0898,-0.0898,-0.0907,0,0,0,-0.0635,-0.0619,-0.0652,-0.0641,-0.0699,-0.0752,-0.0721,-0.079,-0.0799,-0.0828,-0.0849,-0.0851,-0.0898,-0.0898,-0.0907,-0.0887,0,0,0,-0.0609,-0.0617,-0.0627,-0.0639,-0.0684,-0.0751,-0.0765,-0.0793,-0.0814,-0.0848,-0.0851,-0.0898,-0.0898,-0.0906,-0.0887,-0.083,0,0,0,-0.0586,-0.0601,-0.0626,-0.0654,-0.0683,-0.0748,-0.0765,-0.0817,-0.0847,-0.085,-0.0898,-0.0898,-0.0906,-0.0887,-0.0831,-0.0677,0,0,0,-0.0592,-0.0601,-0.062,-0.0645,-0.0692,-0.0734,-0.0788,-0.0834,-0.0846,-0.0872,-0.0874,-0.0907,-0.0887,-0.083,-0.0686,0,0,0,0,-0.0614,-0.0617,-0.0638,-0.0673,-0.0728,-0.0771,-0.0825,-0.0847,-0.0881,-0.0865,-0.0906,-0.0893,-0.0857,-0.0771,-0.0898,-0.0898,-0.0898,-0.0898,-0.0898,-0.0576,-0.0614,-0.0641,-0.0686,-0.0727,-0.0803,-0.0833,-0.0867,-0.0891,-0.0903,-0.0901,-0.0864,-0.0777,-0.0915,-0.0915,-0.0915,-0.0915,-0.0915,-0.0915,-0.0571,-0.0578,-0.0632,-0.0672,-0.0728,-0.0779,-0.0844,-0.0869,-0.0876,-0.0909,-0.0873,-0.079,-0.0916,-0.0916,-0.0916,-0.0915,-0.0915,-0.0915,-0.0915,-0.0535,-0.0539,-0.0583,-0.0636,-0.0688,-0.0761,-0.077,-0.0838,-0.0858,-0.0847,-0.0713,-0.0843,-0.0837,-0.082,-0.082,-0.0819,-0.0819,-0.0819,-0.0819,-0.0469,-0.051,-0.0528,-0.0589,-0.0617,-0.0663,-0.0724,-0.0701,-0.0738,-0.0679,-0.0828,-0.083,-0.0833,-0.083,-0.0814,-0.0815,-0.0815,-0.0816,-0.0816,-0.04,-0.0428,-0.0436,-0.0464,-0.0518,-0.055,-0.0609,-0.0532,-0.0478,-0.0412,-0.0576,-0.0589,-0.0554,-0.0563,-0.0549,-0.0449,-0.0447,-0.0444,0,-0.0337,-0.0358,-0.034,-0.0359,-0.0379,-0.0474,-0.037,-0.0347,-0.0367,-0.038,-0.0492,-0.0685,-0.0692,-0.0662,-0.0667,-0.0654,0,0,0,-0.0286,-0.0286,-0.0246,-0.0285,-0.0317,-0.0323,-0.0345,-0.0292,-0.0396,-0.0244,-0.0391,-0.0405,-0.0597,-0.0799,-0.0776,-0.078,-0.0772,0,0]},{"header":{"parameterUnit":"m.s-1","parameterCategory":2,"la1":30.2992,"la2":30.254,"lo1":-89.0895,"lo2":-89.0443,"dy":0.0025,"dx":0.0025,"nx":19,"ny":19,"refTime":"2026-05-09T21:00:00:Z","depth":"4","parameterNumber":3,"parameterNumberName":"V-component_of_CURRENTS"},"data":[0,0,0,-0.0128,-0.0129,-0.0157,-0.0157,-0.0175,-0.0175,0,0,0,0,0,0,0,0,0,0,0,-0.0114,-0.0114,-0.0128,-0.0129,-0.0157,-0.0157,-0.0175,-0.0175,0,0,0,0,0,0,0,0,0,0,0,-0.0113,-0.0114,-0.0114,-0.0129,-0.0157,-0.0157,-0.0175,-0.0158,0,0,0,0,0,0,0,0,0,0,-0.0133,-0.0129,-0.0114,-0.0114,-0.0129,-0.0157,-0.0157,-0.0157,-0.0159,-0.0157,0,-0.0159,0,-0.0169,-0.0176,-0.0176,0,0,0,-0.0128,-0.0128,-0.0129,-0.0114,-0.0129,-0.0157,-0.0144,-0.0158,-0.016,-0.0159,-0.0159,-0.016,-0.017,-0.0176,-0.0176,-0.0139,-0.0138,0,0,-0.0127,-0.0125,-0.0128,-0.013,-0.0133,-0.0143,-0.0145,-0.016,-0.0163,-0.0159,-0.0161,-0.017,-0.0176,-0.0176,-0.0139,-0.0138,0,0,0,-0.0123,-0.0124,-0.0126,-0.0129,-0.0137,-0.0144,-0.0146,-0.0163,-0.0161,-0.0161,-0.017,-0.0176,-0.0176,-0.014,-0.0139,-0.0135,0,0,0,-0.0122,-0.0121,-0.0125,-0.0125,-0.0137,-0.0155,-0.0148,-0.016,-0.0163,-0.017,-0.0176,-0.0176,-0.014,-0.0139,-0.0137,-0.0151,0,0,0,-0.0113,-0.0121,-0.0122,-0.0125,-0.0137,-0.0155,-0.0155,-0.0161,-0.0168,-0.0176,-0.0176,-0.014,-0.0139,-0.0138,-0.0152,-0.0099,0,0,0,-0.0113,-0.0129,-0.0122,-0.0149,-0.0137,-0.0156,-0.0155,-0.0174,-0.0182,-0.0176,-0.014,-0.0139,-0.0138,-0.0153,-0.0101,-0.0055,0,0,0,-0.0136,-0.0132,-0.015,-0.0144,-0.0176,-0.0152,-0.016,-0.0171,-0.0157,-0.0135,-0.0135,-0.0136,-0.0152,-0.01,0.0015,0,0,0,0,-0.016,-0.0173,-0.0181,-0.0199,-0.02,-0.0185,-0.0183,-0.0153,-0.0122,-0.0156,-0.0113,-0.0123,-0.009,-0.0066,-0.0133,-0.0133,-0.0133,-0.0133,-0.0134,-0.0181,-0.0196,-0.0227,-0.0237,-0.0236,-0.0206,-0.0175,-0.0126,-0.0122,-0.0087,-0.0102,-0.0039,-0.0012,-0.0073,-0.0072,-0.0072,-0.0072,-0.0072,-0.0072,-0.0226,-0.0248,-0.0256,-0.029,-0.0262,-0.0253,-0.0167,-0.0133,-0.0052,-0.0061,-0.0028,-0.0043,-0.0071,-0.0072,-0.0072,-0.0072,-0.0072,-0.0072,-0.0072,-0.0239,-0.0253,-0.0279,-0.0314,-0.0313,-0.0274,-0.0194,-0.0138,-0.0059,-0.0027,0.0032,-0.0022,-0.0041,0.0002,0.0002,0.0002,0.0002,0.0002,0.0002,-0.0241,-0.0269,-0.0303,-0.0338,-0.0345,-0.031,-0.021,-0.0122,-0.0048,0.004,-0.0022,-0.0013,-0.0016,-0.0035,0.0005,0.0005,0.0004,0.0004,0.0004,-0.0264,-0.0275,-0.0316,-0.0335,-0.0346,-0.0309,-0.023,-0.0035,0.0065,0.0149,0.0101,0.0095,0.0103,0.0098,0.0082,0.0159,0.016,0.016,0,-0.0271,-0.0283,-0.0328,-0.0344,-0.0319,-0.0296,-0.011,-0.0002,0.0093,0.0092,0.0032,-0.0033,-0.0033,-0.0038,-0.004,-0.0065,0,0,0,-0.0289,-0.0293,-0.0318,-0.0337,-0.0312,-0.015,-0.0055,0.0026,0.0062,0.0201,0.018,0.0175,0.0047,0.0014,0.0013,0.001,-0.0021,0,0]}]]